Regional Weather Roundup
Issued by NWS Mt. Holly, NJ

Home | Current Version | Previous Version | Text Only | Print | Product List | Glossary On
Versions: 1 2 3 4 5 6 7 8 9 10 11 12 13 14 15 16 17 18 19 20 21 22 23 24 25 26 27 28 29 30 31 32 33 34 35 36 37 38 39 40 41 42 43 44 45 46 47 48 49 50
000
ASUS41 KPHI 141012
RWRPHI

REGIONAL WEATHER ROUNDUP
NATIONAL WEATHER SERVICE MOUNT HOLLY NJ
600 AM EDT MON OCT 14 2019

NOTE:  "FAIR" INDICATES FEW OR NO CLOUDS BELOW 12,000 FEET WITH NO
SIGNIFICANT WEATHER AND/OR OBSTRUCTIONS TO VISIBILITY.

 * = STATION DOES NOT REPORT PRECIPITATION (E.G. RAIN, SNOW, ETC.)
        OR FOG.

NJZ015>026-141100-
SOUTHERN NEW JERSEY

CITY           SKY/WX    TMP DP  RH WIND       PRES   REMARKS
POMONA         CLOUDY    59  57  93 N5        29.96S FOG
WILDWOOD*      CLOUDY    62  61  96 CALM      29.97S
MILLVILLE      FOG       59  57  93 CALM      29.97R VSB 1/4
WRIGHTSTOWN    CLOUDY    56  55  97 CALM      29.96R
MOUNT HOLLY    CLOUDY    56  55  97 CALM      29.97R
TRENTON        CLOUDY    58  55  90 N3        29.96S

$$
NJZ001>014-141100-
NORTHERN NEW JERSEY

CITY           SKY/WX    TMP DP  RH WIND       PRES   REMARKS
SUSSEX         CLOUDY    49  46  90 CALM      29.97R
ANDOVER*         N/A     53  51  93 CALM      29.97R
MORRISTOWN     CLOUDY    50  50 100 CALM      29.97R
NEWARK         CLOUDY    59  55  87 SE3       29.96R
TETERBORO      CLOUDY    59  53  80 CALM      29.95R
CALDWELL       MOCLDY    56  53  90 CALM      29.97R
SOMERVILLE     CLOUDY    55  52  89 CALM      29.96R
ALLAIRE*       CLOUDY    57  56  96 E3        29.98R
TOMS RIVER*    CLOUDY   N/A N/A N/A CALM      29.98R

$$
PAZ043-044-047-054-055-060>062-066>071-141100-
EASTERN PENNSYLVANIA

CITY           SKY/WX    TMP DP  RH WIND       PRES   REMARKS
PHILADELPHIA   CLOUDY    59  55  87 CALM      29.97S
NORTH PHILA    CLOUDY    60  54  80 CALM      29.98R
BLUE BELL*     CLOUDY    56  56  97 CALM      29.97S
DOYLESTOWN     CLOUDY    58  55  90 CALM      29.97R
QUAKERTOWN*    CLOUDY    55  55 100 CALM      29.98  FOG
PERKASIE*      CLOUDY    55  55 100 CALM      29.99R
POTTSTOWN      CLOUDY    54  54 100 CALM      29.99R FOG
LANCASTER      FAIR      49  46  90 W3        29.98R FOG
COATESVILLE    FOG       50  50 100 CALM      29.99R VSB<1/4
WEST CHESTER   CLOUDY    55  54  94 CALM      29.98S FOG
READING        CLOUDY    55  54  96 NW5       29.97R
ALLENTOWN      CLOUDY    55  51  86 SW3       29.98R
QN CITY/ALNTWN CLOUDY    50  50 100 CALM      29.99R
MOUNT POCONO   CLOUDY    49  49 100 W12       29.97R FOG
HAZLETON       CLOUDY    50  46  87 CALM      30.00S FOG
LEHIGHTON      CLOUDY    48  48 100 CALM      30.00R
WILKES BARRE   CLOUDY    50  47  89 CALM      29.97S

$$
DEZALL-MDZ008-012-015-019-020-141100-
DELAWARE AND EASTERN MARYLAND

CITY           SKY/WX    TMP DP  RH WIND       PRES   REMARKS
WILMINGTON     CLOUDY    59  58  96 CALM      29.98R
DOVER          CLOUDY    59  59 100 W3        29.97R
CHESWOLD       CLOUDY    59  57  94 CALM      29.97S
GEORGETOWN     CLOUDY    63  61  93 CALM      29.98R
EASTON         FOG       59  57  94 CALM      30.01R VSB 0
STEVENSVILLE   FOG       52 N/A N/A CALM      29.98R VSB 1/4
PATUXENT       CLOUDY    60  58  92 CALM      29.96
OCEAN CITY     CLOUDY    64  63  96 NW6       29.97R
WALLOPS ISLAND HVY RAIN  65  65 100 NW7       29.97R FOG
CAMBRIDGE      FOG       55  55 100 SE6       29.97R VSB 0
SALISBURY      CLOUDY    63  60  90 CALM      29.97R

$$
PAZ001-021-NYZ056-072-MDZ011-DCZ001-141100-
OTHER NEARBY LOCATIONS

CITY           SKY/WX    TMP DP  RH WIND       PRES   REMARKS
HARRISBURG     FAIR      46  42  86 NW3       29.98R
STATE COLLEGE  CLEAR     39  39 100 CALM      29.95S
WILLIAMSPORT   FOG       40  39  97 CALM      29.96S VSB 1/4
BINGHAMTON     FAIR      45  43  93 S6        29.92S
NEW YORK CITY  CLOUDY    59  55  87 VRB3      29.99
BALTIMORE      FAIR      47  46  97 W6        29.98R
WASHINGTON DC  FAIR      54  51  90 CALM      29.99R

$$



USA.gov is the U.S. government's official web portal to all federal, state and local government web resources and services.